Date String (YYYY-MM-DD hh:mm:ss) UTC,Instrument flags,Ambient pressure (hPa),Sample flow (lpm),Bypass flow (lpm),Sample temperature (°C),Ambient temperature (°C),ASC tube jacket temperature (°C),LED temperature (°C),Box temperature (°C),Sample RH (%),Span deviation,Mass concentration (μg/m³),Mass concentration (μg/m³),Mass concentration (μg/m³)
DateTimeUTC,F1_M11,P_M11,Q1_M11,Q2_M11,T1_M11,T2_M11,T3_M11,T4_M11,T5_M11,U1_M11,ZSPAN_M11,X0_M11,X2_M11,X1_M11
2021-11-27 05:00:00,,0826.2,5.00,0.00,29.5,28.6,00.0,38.6,31.2,05.6,0000.0,0002.51,0001.23,0000.80
2021-11-27 05:01:00,,0826.2,5.01,0.00,29.5,28.6,00.0,38.6,31.2,05.5,0000.0,0002.98,0001.27,0000.80
2021-11-27 05:02:00,,0826.2,4.99,0.00,29.5,28.6,00.0,38.6,31.1,05.5,0000.0,0003.49,0001.29,0000.81
2021-11-27 05:03:00,,0826.2,5.02,0.00,29.5,28.6,00.0,38.6,31.1,05.4,0000.0,0003.50,0001.30,0000.81
2021-11-27 05:04:00,,0826.2,4.98,0.00,29.5,28.6,00.0,38.6,31.2,05.4,0000.0,0003.45,0001.27,0000.80
2021-11-27 05:05:00,,0826.2,5.01,0.00,29.5,28.6,00.0,38.6,31.1,05.4,0000.0,0003.54,0001.24,0000.78
2021-11-27 05:06:00,,0826.2,4.99,0.00,29.5,28.5,00.0,38.6,31.1,05.3,0000.0,0003.45,0001.21,0000.77
2021-11-27 05:07:00,,0826.1,5.00,0.00,29.5,28.5,00.0,38.6,31.2,05.3,0000.0,0003.44,0001.21,0000.77
2021-11-27 05:08:00,,0826.0,4.98,0.00,29.5,28.6,00.0,38.6,31.2,05.3,0000.0,0003.40,0001.22,0000.77
2021-11-27 05:09:00,,0826.0,5.02,0.00,29.5,28.6,00.0,38.6,31.2,05.3,0000.0,0003.38,0001.26,0000.78
2021-11-27 05:10:00,,0826.0,4.98,0.00,29.5,28.6,00.0,38.6,31.2,05.3,0000.0,0003.61,0001.32,0000.77
2021-11-27 05:11:00,,0826.0,5.01,0.00,29.5,28.6,00.0,38.6,31.2,05.3,0000.0,0003.63,0001.35,0000.77
2021-11-27 05:12:00,,0825.9,4.98,0.00,29.5,28.6,00.0,38.6,31.2,05.3,0000.0,0003.19,0001.34,0000.77
2021-11-27 05:13:00,,0825.9,4.99,0.00,29.5,28.6,00.0,38.6,31.3,05.3,0000.0,0002.72,0001.33,0000.76
2021-11-27 05:14:00,,0825.9,5.02,0.00,29.5,28.6,00.0,38.6,31.2,05.3,0000.0,0002.71,0001.34,0000.76
2021-11-27 05:15:00,,0825.9,4.99,0.00,29.5,28.6,00.0,38.5,31.2,05.3,0000.0,0002.77,0001.37,0000.76
2021-11-27 05:16:00,,0825.9,4.99,0.00,29.5,28.6,00.0,38.5,31.2,05.4,0000.0,0002.62,0001.38,0000.77
2021-11-27 05:17:00,,0825.9,5.01,0.00,29.4,28.5,00.0,38.5,31.1,05.4,0000.0,0002.72,0001.42,0000.77
2021-11-27 05:18:00,,0825.9,5.00,0.00,29.4,28.5,00.0,38.5,31.1,05.3,0000.0,0002.87,0001.45,0000.77
2021-11-27 05:19:00,,0825.9,5.00,0.00,29.4,28.5,00.0,38.5,31.1,05.3,0000.0,0002.98,0001.49,0000.77
2021-11-27 05:20:00,,0825.9,5.01,0.00,29.4,28.5,00.0,38.5,31.1,05.3,0000.0,0003.19,0001.45,0000.75
2021-11-27 05:21:00,,0825.9,5.00,0.00,29.4,28.5,00.0,38.5,31.1,05.4,0000.0,0002.92,0001.35,0000.75
2021-11-27 05:22:00,,0826.0,4.99,0.00,29.5,28.5,00.0,38.5,31.1,05.3,0000.0,0002.83,0001.33,0000.76
2021-11-27 05:23:00,,0826.0,5.00,0.00,29.4,28.5,00.0,38.5,31.1,05.4,0000.0,0002.82,0001.35,0000.76
2021-11-27 05:24:00,,0826.0,5.00,0.00,29.5,28.5,00.0,38.5,31.1,05.4,0000.0,0002.81,0001.35,0000.76
2021-11-27 05:25:00,,0826.0,5.01,0.00,29.5,28.5,00.0,38.5,31.1,05.5,0000.0,0002.85,0001.37,0000.76
2021-11-27 05:26:00,,0826.0,4.99,0.00,29.4,28.5,00.0,38.5,31.1,05.6,0000.0,0003.31,0001.36,0000.74
2021-11-27 05:27:00,,0825.9,5.01,0.00,29.4,28.4,00.0,38.5,31.1,05.7,0000.0,0003.63,0001.32,0000.74
2021-11-27 05:28:00,,0826.0,5.01,0.00,29.4,28.4,00.0,38.5,31.0,05.7,0000.0,0004.56,0001.30,0000.74
2021-11-27 05:29:00,,0825.9,4.99,0.00,29.4,28.4,00.0,38.5,31.0,05.7,0000.0,0004.49,0001.28,0000.74
2021-11-27 05:30:00,,0825.9,5.00,0.00,29.4,28.4,00.0,38.5,31.0,05.7,0000.0,0004.36,0001.25,0000.74
2021-11-27 05:31:00,,0825.8,5.02,0.00,29.4,28.4,00.0,38.5,31.0,05.8,0000.0,0004.01,0001.22,0000.75
2021-11-27 05:32:00,,0826.1,4.99,0.00,29.4,28.4,00.0,38.5,31.0,05.8,0000.0,0003.89,0001.22,0000.76
2021-11-27 05:33:00,,0825.7,4.99,0.00,29.3,28.4,00.0,38.5,31.0,05.8,0000.0,0003.91,0001.25,0000.76
2021-11-27 05:34:00,,0825.7,5.00,0.00,29.3,28.4,00.0,38.4,31.0,05.9,0000.0,0003.92,0001.22,0000.75
2021-11-27 05:35:00,,0825.7,4.99,0.00,29.3,28.3,00.0,38.4,30.9,05.9,0000.0,0003.93,0001.20,0000.75
2021-11-27 05:36:00,,0825.7,5.01,0.00,29.3,28.3,00.0,38.4,30.9,05.9,0000.0,0003.95,0001.20,0000.75
2021-11-27 05:37:00,,0825.7,5.00,0.00,29.3,28.3,00.0,38.4,30.9,06.0,0000.0,0003.41,0001.15,0000.75
2021-11-27 05:38:00,,0825.7,5.00,0.00,29.3,28.3,00.0,38.4,30.9,06.0,0000.0,0002.96,0001.16,0000.74
2021-11-27 05:39:00,,0825.7,5.01,0.00,29.2,28.3,00.0,38.4,30.9,05.9,0000.0,0002.11,0001.13,0000.73
2021-11-27 05:40:00,,0825.8,4.99,0.00,29.2,28.2,00.0,38.4,30.9,05.8,0000.0,0002.20,0001.12,0000.73
2021-11-27 05:41:00,,0825.7,5.02,0.00,29.2,28.2,00.0,38.4,30.8,05.8,0000.0,0003.60,0001.12,0000.72
2021-11-27 05:42:00,,0826.0,5.00,0.00,29.1,28.2,00.0,38.3,30.8,05.8,0000.0,0003.73,0001.12,0000.72
2021-11-27 05:43:00,,0825.9,4.99,0.00,29.1,28.2,00.0,38.3,30.8,05.8,0000.0,0003.83,0001.14,0000.71
2021-11-27 05:44:00,,0825.9,5.01,0.00,29.1,28.2,00.0,38.3,30.8,05.8,0000.0,0003.90,0001.12,0000.70
2021-11-27 05:45:00,,0826.1,4.98,0.00,29.1,28.1,00.0,38.3,30.8,05.8,0000.0,0003.86,0001.12,0000.72
2021-11-27 05:46:00,,0825.8,5.01,0.00,29.1,28.1,00.0,38.3,30.8,05.8,0000.0,0003.83,0001.12,0000.72
2021-11-27 05:47:00,,0825.8,5.01,0.00,29.1,28.1,00.0,38.2,30.7,05.8,0000.0,0003.75,0001.10,0000.72
2021-11-27 05:48:00,,0825.9,4.99,0.00,29.1,28.1,00.0,38.2,30.7,05.9,0000.0,0003.83,0001.11,0000.72
2021-11-27 05:49:00,,0825.9,5.00,0.00,29.1,28.1,00.0,38.2,30.8,06.0,0000.0,0003.90,0001.11,0000.72
2021-11-27 05:50:00,,0825.9,5.00,0.00,29.1,28.2,00.0,38.2,30.8,06.0,0000.0,0004.03,0001.15,0000.73
2021-11-27 05:51:00,,0826.0,5.00,0.00,29.1,28.2,00.0,38.2,30.9,05.9,0000.0,0004.11,0001.22,0000.74
2021-11-27 05:52:00,,0826.0,5.00,0.00,29.1,28.2,00.0,38.2,30.9,05.8,0000.0,0002.62,0001.22,0000.75
2021-11-27 05:53:00,,0826.1,4.99,0.00,29.1,28.3,00.0,38.2,30.9,05.8,0000.0,0002.63,0001.26,0000.76
2021-11-27 05:54:00,,0826.1,5.01,0.00,29.1,28.3,00.0,38.2,30.9,05.8,0000.0,0002.67,0001.26,0000.77
2021-11-27 05:55:00,,0826.2,5.00,0.00,29.1,28.3,00.0,38.2,30.8,05.8,0000.0,0002.62,0001.28,0000.78
2021-11-27 05:56:00,,0826.2,4.99,0.00,29.1,28.3,00.0,38.2,30.8,05.8,0000.0,0002.85,0001.34,0000.78
2021-11-27 05:57:00,,0826.2,5.00,0.00,29.1,28.2,00.0,38.2,30.8,05.8,0000.0,0004.39,0001.40,0000.79
2021-11-27 05:58:00,,0826.2,5.02,0.00,29.1,28.2,00.0,38.2,30.8,05.8,0000.0,0004.46,0001.42,0000.79
2021-11-27 05:59:00,,0826.0,4.99,0.00,29.1,28.2,00.0,38.2,30.8,05.6,0000.0,0004.40,0001.42,0000.79
